TimeCST,TemperatureF,Dew PointF,Humidity,Sea Level PressureIn,VisibilityMPH,Wind Direction,Wind SpeedMPH,Gust SpeedMPH,PrecipitationIn,Events,Conditions,WindDirDegrees,DateUTC
12:15 AM,12.2,5.0,73,29.97,10.0,NW,26.5,34.5,N/A,,Overcast,310,2013-02-19 06:15:00
12:35 AM,12.2,3.2,67,29.98,10.0,NW,24.2,33.4,N/A,,Mostly Cloudy,310,2013-02-19 06:35:00
12:55 AM,12.2,3.2,67,29.99,10.0,NW,25.3,31.1,N/A,,Mostly Cloudy,310,2013-02-19 06:55:00
1:15 AM,12.2,3.2,67,29.99,10.0,WNW,20.7,33.4,N/A,,Mostly Cloudy,300,2013-02-19 07:15:00
1:35 AM,12.2,3.2,67,30.00,10.0,WNW,25.3,31.1,N/A,,Mostly Cloudy,300,2013-02-19 07:35:00
1:55 AM,10.4,3.2,73,30.00,10.0,NW,23.0,33.4,N/A,,Mostly Cloudy,310,2013-02-19 07:55:00
2:15 AM,10.4,3.2,73,30.01,10.0,NW,21.9,29.9,N/A,,Scattered Clouds,310,2013-02-19 08:15:00
2:35 AM,10.4,3.2,73,30.02,10.0,WNW,26.5,34.5,N/A,,Mostly Cloudy,300,2013-02-19 08:35:00
2:55 AM,10.4,3.2,73,30.03,10.0,WNW,26.5,35.7,N/A,,Overcast,300,2013-02-19 08:55:00
3:15 AM,12.2,3.2,67,30.03,10.0,NW,25.3,33.4,N/A,,Freezing Rain,310,2013-02-19 09:15:00
3:35 AM,12.2,3.2,67,30.04,8.0,NW,25.3,38.0,N/A,Snow,Light Snow,320,2013-02-19 09:35:00
3:55 AM,12.2,3.2,67,30.04,10.0,NW,25.3,32.2,N/A,,Overcast,310,2013-02-19 09:55:00
4:15 AM,12.2,3.2,67,30.05,10.0,NW,26.5,35.7,N/A,Rain,Freezing Rain,310,2013-02-19 10:15:00
4:35 AM,12.2,3.2,67,30.06,10.0,NW,27.6,36.8,N/A,Rain,Freezing Rain,310,2013-02-19 10:35:00
4:55 AM,12.2,3.2,67,30.07,9.0,NW,27.6,39.1,N/A,,Overcast,320,2013-02-19 10:55:00
5:15 AM,10.4,5.0,79,30.07,1.8,NW,27.6,35.7,N/A,Snow,Light Snow,320,2013-02-19 11:15:00
5:55 AM,10.4,1.4,67,30.09,9.0,NW,29.9,40.3,N/A,,Freezing Rain,320,2013-02-19 11:55:00
6:15 AM,10.4,1.4,67,30.10,7.0,NW,27.6,36.8,N/A,Snow,Light Snow,310,2013-02-19 12:15:00
6:35 AM,10.4,1.4,67,30.11,10.0,NW,28.8,-,N/A,,Freezing Rain,320,2013-02-19 12:35:00
6:55 AM,10.4,1.4,67,30.12,10.0,NW,24.2,32.2,N/A,Rain,Freezing Rain,310,2013-02-19 12:55:00
7:15 AM,10.4,-0.4,62,30.14,10.0,NW,23.0,32.2,N/A,,Overcast,310,2013-02-19 13:15:00
7:35 AM,8.6,-0.4,67,30.15,10.0,NW,27.6,36.8,N/A,,Mostly Cloudy,320,2013-02-19 13:35:00
7:55 AM,8.6,-0.4,67,30.16,9.0,NW,27.6,35.7,N/A,Rain,Freezing Rain,310,2013-02-19 13:55:00
8:15 AM,10.4,-0.4,62,30.15,10.0,NW,25.3,36.8,N/A,Rain,Freezing Rain,310,2013-02-19 14:15:00
8:35 AM,10.4,-0.4,62,30.16,10.0,NW,24.2,32.2,N/A,,Clear,310,2013-02-19 14:35:00
8:55 AM,10.4,-0.4,62,30.17,10.0,NW,27.6,35.7,N/A,,Scattered Clouds,310,2013-02-19 14:55:00
9:35 AM,12.2,-0.4,57,30.18,10.0,NW,24.2,36.8,N/A,,Scattered Clouds,310,2013-02-19 15:35:00
9:55 AM,12.2,-0.4,57,30.19,10.0,NW,29.9,36.8,N/A,,Partly Cloudy,320,2013-02-19 15:55:00
10:15 AM,12.2,-0.4,57,30.20,10.0,NW,25.3,35.7,N/A,,Partly Cloudy,320,2013-02-19 16:15:00
10:35 AM,14.0,-0.4,53,30.21,10.0,NW,21.9,33.4,N/A,,Clear,310,2013-02-19 16:35:00
10:55 AM,15.8,-0.4,49,30.21,10.0,NW,26.5,33.4,N/A,,Clear,310,2013-02-19 16:55:00
11:15 AM,15.8,-0.4,49,30.21,10.0,NW,25.3,34.5,N/A,,Clear,310,2013-02-19 17:15:00
11:35 AM,15.8,-0.4,49,30.22,10.0,NW,26.5,33.4,N/A,,Clear,320,2013-02-19 17:35:00
11:55 AM,15.8,-2.2,45,30.23,10.0,NW,28.8,39.1,N/A,,Clear,320,2013-02-19 17:55:00
12:15 PM,17.6,-0.4,45,30.23,10.0,WNW,29.9,35.7,N/A,,Clear,300,2013-02-19 18:15:00
12:35 PM,17.6,-0.4,45,30.22,10.0,NW,29.9,38.0,N/A,,Clear,310,2013-02-19 18:35:00
12:55 PM,17.6,-0.4,45,30.22,10.0,NW,24.2,34.5,N/A,,Clear,310,2013-02-19 18:55:00
1:15 PM,19.4,-0.4,42,30.22,10.0,NW,25.3,-,N/A,,Clear,320,2013-02-19 19:15:00
1:35 PM,19.4,-0.4,42,30.22,10.0,NW,21.9,32.2,N/A,,Clear,320,2013-02-19 19:35:00
1:55 PM,19.4,-0.4,42,30.22,10.0,WNW,25.3,33.4,N/A,,Clear,300,2013-02-19 19:55:00
2:15 PM,19.4,-0.4,42,30.22,10.0,WNW,26.5,-,N/A,,Clear,300,2013-02-19 20:15:00
2:35 PM,19.4,-0.4,42,30.22,-9999.0,NW,25.3,32.2,N/A,,Clear,310,2013-02-19 20:35:00
2:55 PM,19.4,-0.4,42,30.23,10.0,NW,24.2,32.2,N/A,,Clear,310,2013-02-19 20:55:00
3:15 PM,21.2,-0.4,39,30.24,10.0,NW,24.2,33.4,N/A,,Clear,310,2013-02-19 21:15:00
3:35 PM,21.2,-0.4,39,30.24,10.0,WNW,25.3,33.4,N/A,,Clear,300,2013-02-19 21:35:00
3:55 PM,19.4,-0.4,42,30.24,10.0,NW,24.2,34.5,N/A,,Clear,320,2013-02-19 21:55:00
4:15 PM,19.4,-0.4,42,30.25,10.0,NW,26.5,-,N/A,,Clear,320,2013-02-19 22:15:00
4:35 PM,19.4,-0.4,42,30.25,10.0,NW,21.9,29.9,N/A,,Clear,310,2013-02-19 22:35:00
4:55 PM,19.4,-0.4,42,30.25,10.0,NW,21.9,27.6,N/A,,Clear,310,2013-02-19 22:55:00
5:15 PM,17.6,-0.4,45,30.25,10.0,NW,19.6,26.5,N/A,,Clear,320,2013-02-19 23:15:00
6:35 PM,15.8,-0.4,49,30.26,10.0,NW,8.1,15.0,N/A,,Clear,320,2013-02-20 00:35:00
6:55 PM,14.0,-0.4,53,30.26,10.0,NW,10.4,-,N/A,,Clear,320,2013-02-20 00:55:00
7:15 PM,12.2,-0.4,57,30.27,10.0,NW,13.8,-,N/A,,Clear,310,2013-02-20 01:15:00
7:35 PM,12.2,-2.2,53,30.28,10.0,NW,12.7,-,N/A,,Clear,320,2013-02-20 01:35:00
7:55 PM,12.2,-2.2,53,30.28,10.0,NW,11.5,-,N/A,,Clear,320,2013-02-20 01:55:00
8:15 PM,10.4,-2.2,57,30.28,10.0,NW,15.0,-,N/A,,Clear,320,2013-02-20 02:15:00
8:35 PM,10.4,-2.2,57,30.29,10.0,NNW,11.5,-,N/A,,Clear,330,2013-02-20 02:35:00
8:55 PM,10.4,-2.2,57,30.30,10.0,NNW,12.7,-,N/A,,Clear,330,2013-02-20 02:55:00
9:15 PM,8.6,-2.2,62,30.31,10.0,NW,10.4,-,N/A,,Clear,310,2013-02-20 03:15:00
9:35 PM,8.6,-2.2,62,30.31,10.0,NW,10.4,-,N/A,,Clear,320,2013-02-20 03:35:00
9:55 PM,8.6,-2.2,62,30.32,10.0,NNW,15.0,-,N/A,,Clear,330,2013-02-20 03:55:00
10:15 PM,6.8,-2.2,67,30.32,10.0,NNW,13.8,-,N/A,,Clear,340,2013-02-20 04:15:00
10:35 PM,6.8,-2.2,67,30.34,10.0,NNW,11.5,-,N/A,,Clear,330,2013-02-20 04:35:00
10:55 PM,5.0,-2.2,72,30.35,10.0,NNW,11.5,-,N/A,,Clear,330,2013-02-20 04:55:00
11:15 PM,5.0,-2.2,72,30.35,10.0,NNW,8.1,-,N/A,,Clear,340,2013-02-20 05:15:00
11:35 PM,5.0,-2.2,72,30.35,10.0,NNW,9.2,-,N/A,,Clear,340,2013-02-20 05:35:00
11:55 PM,5.0,-2.2,72,30.37,10.0,NNW,9.2,-,N/A,,Clear,340,2013-02-20 05:55:00